User: anonymous   Login
Location: Gollag?dem
(16.8053°N, 80.8024°E)
Time: 16:20:56
(UTC+00:00)
Language:

ATLAS 2A CENTAUR R/B - Orbit

View from above orbital plane
View from above orbital plane
View from above satellite
View from above satellite

Ground track
Ground track

The orbit data is extracted from the following two-line orbital elements,

1 26389U 00034B   20292.05712662 +.00003673 +00000-0 +34433-3 0  9998
2 26389 026.8580 176.7479 5405643 269.1634 031.7821 04.99794586306561
Epoch (UTC): 18 October 2020 01:22:15
Eccentricity: 0.5405643
inclination: 26.8580°
perigee height: 261 km
apogee height: 15883 km
right ascension of ascending node: 176.7479°
argument of perigee: 269.1634°
revolutions per day: 4.99794586
mean anomaly at epoch: 31.7821°
orbit number at epoch: 30656

The dashed part of the orbit path shows where the satellite is in the earth's shadow,  

DLR